Le nostre stazioni meteo in Italia

Pubblicità
Il mio iltempo24.it
Termoli, Italia (16232): Temperatura & dewpoint: 19.01.2020 05:00:00 - 25.01.2020 05:00:00 (CET)Termoli, Italia (16232): velocità del vento: 19.01.2020 05:00:00 - 25.01.2020 05:00:00 (CET)Termoli, Italia (16232): direzione del vento: 19.01.2020 05:00:00 - 25.01.2020 05:00:00 (CET)Termoli, Italia (16232): reduced air pressure: 19.01.2020 05:00:00 - 25.01.2020 05:00:00 (CET)Termoli, Italia (16232): visibility: 19.01.2020 05:00:00 - 25.01.2020 05:00:00 (CET)Termoli, Italia (16232): ore di luce: 19.01.2020 05:00:00 - 25.01.2020 05:00:00 (CET)
Data & Tempo tt [°C] td [°C] ff [km/h] ff [kn] dd ppp [hPa] vv [km] sd [min]
25.01.2020 05:00:00 - - - - - - - -
25.01.2020 04:00:00 - - - - - - - -
25.01.2020 03:00:00 - - - - - - - -
25.01.2020 02:00:00 - - - - - - - -
25.01.2020 01:00:00 - - - - - - - -
25.01.2020 00:00:00 - - - - - - - -
24.01.2020 23:00:00 - - - - - - - -
24.01.2020 22:00:00 - - - - - - - -
24.01.2020 21:00:00 - - - - - - - -
24.01.2020 20:00:00 - - - - - - - -
24.01.2020 19:00:00 10,8 8,9 8 4 SE 1024,6 15 -
24.01.2020 18:00:00 - - - - - - - -
24.01.2020 17:00:00 - - - - - - - -
24.01.2020 16:00:00 12,8 10,9 11 6 SE 1025,2 10 60
24.01.2020 15:00:00 - - - - - - - -
24.01.2020 14:00:00 - - - - - - - -
24.01.2020 13:00:00 13,2 9,8 5 3 ENE 1026,4 12 60
24.01.2020 12:00:00 - - - - - - - -
24.01.2020 11:00:00 - - - - - - - -
24.01.2020 10:00:00 11,2 8,8 2 1 SE 1028,3 12 60
24.01.2020 09:00:00 - - - - - - - -
24.01.2020 08:00:00 - - - - - - - -
24.01.2020 07:00:00 9,0 6,8 5 3 SSO 1027,8 10 -
24.01.2020 06:00:00 - - - - - - - -
24.01.2020 05:00:00 - - - - - - - -
24.01.2020 04:00:00 - - - - - - - -
24.01.2020 03:00:00 - - - - - - - -
24.01.2020 02:00:00 - - - - - - - -
24.01.2020 01:00:00 - - - - - - - -
24.01.2020 00:00:00 - - - - - - - -
23.01.2020 23:00:00 - - - - - - - -
23.01.2020 22:00:00 - - - - - - - -
23.01.2020 21:00:00 - - - - - - - -
23.01.2020 20:00:00 - - - - - - - -
23.01.2020 19:00:00 10,2 8,5 15 8 O 1028,5 15 -
23.01.2020 18:00:00 - - - - - - - -
23.01.2020 17:00:00 - - - - - - - -
23.01.2020 16:00:00 13,0 10,4 16 9 NO 1028,5 10 60
23.01.2020 15:00:00 - - - - - - - -
23.01.2020 14:00:00 - - - - - - - -
23.01.2020 13:00:00 14,2 10,8 15 8 ONO 1029,5 15 60
23.01.2020 12:00:00 - - - - - - - -
23.01.2020 11:00:00 - - - - - - - -
23.01.2020 10:00:00 10,2 8,0 8 4 OSO 1030,3 12 60
23.01.2020 09:00:00 - - - - - - - -
23.01.2020 08:00:00 - - - - - - - -
23.01.2020 07:00:00 8,0 6,1 8 4 O 1029,5 20 -
23.01.2020 06:00:00 - - - - - - - -
23.01.2020 05:00:00 - - - - - - - -
23.01.2020 04:00:00 - - - - - - - -
23.01.2020 03:00:00 - - - - - - - -
23.01.2020 02:00:00 - - - - - - - -
23.01.2020 01:00:00 - - - - - - - -
23.01.2020 00:00:00 - - - - - - - -
22.01.2020 23:00:00 - - - - - - - -
22.01.2020 22:00:00 - - - - - - - -
22.01.2020 21:00:00 - - - - - - - -
22.01.2020 20:00:00 - - - - - - - -
22.01.2020 19:00:00 10,2 7,6 8 4 SE 1030,8 20 0
22.01.2020 18:00:00 - - - - - - - -
22.01.2020 17:00:00 - - - - - - - -
22.01.2020 16:00:00 14,4 9,4 4 2 NE 1031,0 15 60
22.01.2020 15:00:00 - - - - - - - -
22.01.2020 14:00:00 - - - - - - - -
22.01.2020 13:00:00 13,6 8,7 8 4 NO 1032,9 20 48
22.01.2020 12:00:00 - - - - - - - -
22.01.2020 11:00:00 - - - - - - - -
22.01.2020 10:00:00 10,4 7,1 13 7 ONO 1035,0 15 12
22.01.2020 09:00:00 - - - - - - - -
22.01.2020 08:00:00 - - - - - - - -
22.01.2020 07:00:00 8,4 5,3 13 7 ONO 1035,9 10 -
22.01.2020 06:00:00 - - - - - - - -
22.01.2020 05:00:00 - - - - - - - -
22.01.2020 04:00:00 - - - - - - - -
22.01.2020 03:00:00 - - - - - - - -
22.01.2020 02:00:00 - - - - - - - -
22.01.2020 01:00:00 - - - - - - - -
22.01.2020 00:00:00 - - - - - - - -
21.01.2020 23:00:00 - - - - - - - -
21.01.2020 22:00:00 - - - - - - - -
21.01.2020 21:00:00 - - - - - - - -
21.01.2020 20:00:00 - - - - - - - -
21.01.2020 19:00:00 9,6 7,7 18 10 O 1038,3 20 -
21.01.2020 18:00:00 - - - - - - - -
21.01.2020 17:00:00 - - - - - - - -
21.01.2020 16:00:00 11,2 9,1 22 12 NO 1038,3 20 0
21.01.2020 15:00:00 - - - - - - - -
21.01.2020 14:00:00 - - - - - - - -
21.01.2020 13:00:00 12,2 7,3 16 9 NO 1039,5 20 48
21.01.2020 12:00:00 - - - - - - - -
21.01.2020 11:00:00 - - - - - - - -
21.01.2020 10:00:00 10,4 4,8 15 8 ONO 1040,3 20 60
21.01.2020 09:00:00 - - - - - - - -
21.01.2020 08:00:00 - - - - - - - -
21.01.2020 07:00:00 8,0 3,3 21 11 ONO 1040,1 20 -
21.01.2020 06:00:00 - - - - - - - -
21.01.2020 05:00:00 - - - - - - - -
21.01.2020 04:00:00 - - - - - - - -
21.01.2020 03:00:00 - - - - - - - -
21.01.2020 02:00:00 - - - - - - - -
21.01.2020 01:00:00 - - - - - - - -
21.01.2020 00:00:00 - - - - - - - -
20.01.2020 23:00:00 - - - - - - - -
20.01.2020 22:00:00 - - - - - - - -
20.01.2020 21:00:00 - - - - - - - -
20.01.2020 20:00:00 - - - - - - - -
20.01.2020 19:00:00 10,0 7,1 24 13 ONO 1037,5 15 -
20.01.2020 18:00:00 - - - - - - - -
20.01.2020 17:00:00 - - - - - - - -
20.01.2020 16:00:00 10,4 7,3 31 17 ONO 1035,9 18 0
20.01.2020 15:00:00 - - - - - - - -
20.01.2020 14:00:00 - - - - - - - -
20.01.2020 13:00:00 10,6 7,5 31 17 NO 1035,5 18 0
20.01.2020 12:00:00 - - - - - - - -
20.01.2020 11:00:00 - - - - - - - -
20.01.2020 10:00:00 9,2 7,2 35 19 ONO 1035,5 18 0
20.01.2020 09:00:00 - - - - - - - -
20.01.2020 08:00:00 - - - - - - - -
20.01.2020 07:00:00 8,8 6,4 31 17 ONO 1033,6 18 -
20.01.2020 06:00:00 - - - - - - - -
20.01.2020 05:00:00 - - - - - - - -
20.01.2020 04:00:00 - - - - - - - -
20.01.2020 03:00:00 - - - - - - - -
20.01.2020 02:00:00 - - - - - - - -
20.01.2020 01:00:00 - - - - - - - -
20.01.2020 00:00:00 - - - - - - - -
19.01.2020 23:00:00 - - - - - - - -
19.01.2020 22:00:00 - - - - - - - -
19.01.2020 21:00:00 - - - - - - - -
19.01.2020 20:00:00 - - - - - - - -
19.01.2020 19:00:00 9,8 7,1 26 14 ONO 1027,3 15 -
19.01.2020 18:00:00 - - - - - - - -
19.01.2020 17:00:00 - - - - - - - -
19.01.2020 16:00:00 12,0 7,1 34 18 NNO 1024,7 20 60
19.01.2020 15:00:00 - - - - - - - -
19.01.2020 14:00:00 - - - - - - - -
19.01.2020 13:00:00 12,4 9,4 28 15 NO 1023,3 15 48
19.01.2020 12:00:00 - - - - - - - -
19.01.2020 11:00:00 - - - - - - - -
19.01.2020 10:00:00 9,8 7,9 35 19 ONO 1022,8 15 0
19.01.2020 09:00:00 - - - - - - - -
19.01.2020 08:00:00 - - - - - - - -
19.01.2020 07:00:00 9,0 7,0 29 16 ONO 1021,9 15 -
19.01.2020 06:00:00 - - - - - - - -
19.01.2020 05:00:00 - - - - - - - -

tt = Temperatura
td = dewpoint
ff = velocità del vento
dd = direzione del vento
ppp = reduced air pressure
vv = visibility
sd = ore di luce

Stazioni seguenti

WeatherPro
AMSI
MeteoEarth